Location: Crescent
(42.8242°N, 73.7329°W)
Time: 20:46:47
(UTC+00:00)

Vanguard 2 Rocket - All Passes

Search period start: 15 February 2026 00:00
Search period end: 25 February 2026 00:00
Orbit: 553 x 3286 km, 32.9° (Epoch: 15 February)

Date Brightness Start Highest point End Pass type
(mag) Time Alt. Az. Time Alt. Az. Time Alt. Az.
15 Feb - 00:32:20 10° WSW 00:34:41 12° SW 00:36:45 10° SSW visible
15 Feb - 14:27:19 10° SSE 14:34:18 13° SE 14:40:47 10° ESE daylight
15 Feb - 16:33:39 10° SSW 16:49:17 33° SSE 17:00:47 10° E daylight
15 Feb - 18:48:24 10° WSW 19:04:22 49° S 19:14:10 10° E daylight
15 Feb - 21:05:47 10° WSW 21:18:22 47° SSW 21:25:41 10° ESE daylight
15 Feb - 23:23:39 10° W 23:30:27 23° SW 23:35:11 10° SSE visible
16 Feb - 15:28:17 10° SSW 15:42:42 26° SSE 15:54:29 10° E daylight
16 Feb - 17:41:02 10° SW 17:58:02 45° SSE 18:09:18 10° E daylight
16 Feb - 19:57:52 10° WSW 20:12:48 52° S 20:21:32 10° ESE daylight
16 Feb - 22:15:47 10° W 22:25:51 34° SSW 22:32:05 10° SE daylight
17 Feb - 14:24:25 10° S 14:36:12 19° SE 14:46:48 10° ESE daylight
17 Feb - 16:34:16 10° SW 16:51:25 40° SSE 17:03:58 10° E daylight
17 Feb - 18:49:59 10° WSW 19:06:46 53° S 19:17:03 10° ESE daylight
17 Feb - 21:07:50 10° W 21:20:48 45° SSW 21:28:25 10° SE daylight
17 Feb - 23:26:32 10° W 23:32:37 18° SW 23:37:05 10° S visible
18 Feb - 13:23:57 10° SSE 13:29:52 12° SE 13:35:38 10° ESE daylight
18 Feb - 15:28:21 10° SSW 15:44:40 33° SSE 15:57:58 10° E daylight
18 Feb - 17:42:21 10° SW 18:00:17 51° SSE 18:12:12 10° E daylight
18 Feb - 19:59:46 10° WSW 20:15:13 53° S 20:24:20 10° ESE daylight
18 Feb - 22:18:09 10° W 22:28:07 30° SSW 22:34:28 10° SSE daylight
19 Feb - 14:23:34 10° S 14:37:59 26° SE 14:50:58 10° E daylight
19 Feb - 16:35:18 10° SW 16:53:30 47° SSE 17:06:54 10° E daylight
19 Feb - 18:51:43 10° WSW 19:09:06 56° S 19:19:52 10° ESE daylight
19 Feb - 21:09:57 10° W 21:23:06 42° SSW 21:31:00 10° SE daylight
19 Feb - 23:29:56 10° WSW 23:34:38 14° SW 23:38:23 10° SSW visible
20 Feb - 13:20:32 10° S 13:31:32 18° SE 13:42:16 10° ESE daylight
20 Feb - 15:29:00 10° SSW 15:46:34 40° SSE 16:01:02 10° E daylight
20 Feb - 17:43:55 10° WSW 18:02:30 56° S 18:15:00 10° E daylight
20 Feb - 20:01:44 10° W 20:17:32 51° SSW 20:27:00 10° ESE daylight
20 Feb - 22:20:40 10° W 22:30:12 26° SW 22:36:35 10° SSE daylight
21 Feb - 12:24:03 10° SE 12:25:25 10° SE 12:26:47 10° SE daylight
21 Feb - 14:23:41 10° SSW 14:39:42 32° SE 14:54:22 10° E daylight
21 Feb - 16:36:39 10° SW 16:55:34 52° SSE 17:09:42 10° E daylight
21 Feb - 18:53:34 10° WSW 19:11:22 57° S 19:22:34 10° ESE daylight
21 Feb - 21:12:08 10° W 21:25:16 38° SSW 21:33:25 10° SE daylight
21 Feb - 23:35:18 10° WSW 23:36:29 10° SW 23:37:36 10° SW visible
22 Feb - 13:19:38 10° S 13:33:06 24° SE 13:46:32 10° E daylight
22 Feb - 15:30:06 10° SW 15:48:26 47° SSE 16:03:51 10° E daylight
22 Feb - 17:45:40 10° WSW 18:04:41 59° S 18:17:42 10° ESE daylight
22 Feb - 20:03:44 10° W 20:19:44 48° SSW 20:29:34 10° SE daylight
22 Feb - 22:23:26 10° W 22:32:06 21° SW 22:38:17 10° S daylight
23 Feb - 12:17:42 10° SSE 12:26:54 16° SE 12:36:29 10° ESE daylight
23 Feb - 14:24:26 10° SSW 14:41:24 39° SSE 14:57:21 10° E daylight
23 Feb - 16:38:16 10° WSW 16:57:36 57° S 17:12:22 10° E daylight
23 Feb - 18:55:30 10° W 19:13:34 56° SSW 19:25:12 10° ESE daylight
23 Feb - 21:14:24 10° W 21:27:15 33° SW 21:35:35 10° SSE daylight
24 Feb - 13:19:48 10° SSW 13:34:37 31° SE 13:49:56 10° E daylight
24 Feb - 15:31:33 10° SW 15:50:18 52° SSE 16:06:31 10° E daylight
24 Feb - 17:47:33 10° WSW 18:06:49 60° S 18:20:19 10° ESE daylight
24 Feb - 20:05:49 10° W 20:21:47 44° SSW 20:31:57 10° SE daylight
24 Feb - 22:26:43 10° W 22:33:51 16° SW 22:39:22 10° SSW daylight
